Regional Weather Roundup
Issued by NWS

Home | Current Version | Previous Version | Text Only | Print | Product List | Glossary Off
Versions: 1 2 3 4 5 6 7 8 9 10 11 12 13 14 15 16 17 18 19 20 21 22 23 24 25 26 27 28 29 30 31 32 33 34 35 36 37 38 39 40 41 42 43 44 45 46 47 48 49 50

000
ASUS43 KDMX 010307
RWRIA

WEATHER ROUNDUP FOR IOWA
NATIONAL WEATHER SERVICE DES MOINES IA
900 PM CST SAT FEB 28 2015

NOTE: "FAIR" INDICATES FEW OR NO CLOUDS BELOW 12,000 FEET WITH NO
SIGNIFICANT WEATHER AND/OR OBSTRUCTIONS TO VISIBILITY.

* - THESE STATIONS ARE NOT NWS STATIONS...THUS NOT UNDER NWS
QUALITY CONTROL.  THEY ALSO DO NOT REPORT WEATHER SUCH
AS PRECIPITATION OR FOG.

IAZ001>003-012>014-020>022-031>034-043>046-010400-
   NORTHWEST IOWA

CITY           SKY/WX    TMP DP  RH WIND       PRES   REMARKS
CARROLL *      CLOUDY    19  16  86 S6        30.35S WCI  11
CHEROKEE *     PTCLDY    19  16  86 S9        30.31S WCI   9
DENISON *      FLURRIES  19  18  93 S8        30.32S WCI   9
LE MARS *      CLEAR     18  14  86 S9        30.29F WCI   6
ORANGE CITY *  CLEAR     16  12  86 S9        30.26F WCI   4
SHELDON *      CLEAR     14  10  85 S12       30.26S WCI   0
SIOUX CITY     CLEAR     21  14  74 S9        30.31F WCI  11
SPENCER          N/A     16  10  77 S13       30.29F WCI   2
STORM LAKE *   CLOUDY    18  16  93 S9        30.31S WCI   6
$$

IAZ055>058-069>071-079>083-090>094-010400-
   SOUTHWEST IOWA

CITY           SKY/WX    TMP DP  RH WIND       PRES   REMARKS
ATLANTIC *     FLURRIES  21  18  86 S5        30.36R WCI  15
AUDUBON *      LGT SNOW  19  16  86 CALM      30.35S
CLARINDA *     CLOUDY    21  18  86 CALM      30.39S
COUNCIL BLFS * FLURRIES  21  21 100 S6        30.34R WCI  14
CRESTON *      CLOUDY    21  19  93 S6        30.36S WCI  14
HARLAN  *      FLURRIES  19  19 100 S5        30.38S WCI  13
LAMONI         PTCLDY    17  14  88 S5        30.37F WCI  10
RED OAK *      CLOUDY    21  18  86 S6        30.37S WCI  14
SHENANDOAH *   CLOUDY    23  19  86 S6        30.38F WCI  16
$$

IAZ047>049-059>061-072>074-084-010400-
   CENTRAL IOWA

CITY           SKY/WX    TMP DP  RH WIND       PRES   REMARKS
AMES           CLOUDY    17  13  84 SE6       30.39S FOG     WCI   9
ANKENY *       CLOUDY    19  16  86 SE8       30.39F WCI   9
CHARITON *     CLOUDY    19  16  86 SE8       30.38F WCI   9
DES MOINES     FLURRIES  22  17  81 SE7       30.39S WCI  13
GRINNELL*      CLEAR     10   9  92 E5        30.40F WCI   2
KNOXVILLE *    CLOUDY    18  14  86 SE9       30.39F WCI   6
MARSHALLTOWN   CLOUDY    13  10  88 SE10      30.39F WCI   0
PELLA *        CLOUDY    14  14 100 CALM      30.43S
PERRY *        FLURRIES  19  19 100 SE6       30.37S WCI  11
$$

IAZ004>006-015-016-023>025-035-036-010400-
   NORTH CENTRAL IOWA

CITY           SKY/WX    TMP DP  RH WIND       PRES   REMARKS
ALGONA *       CLOUDY    18  14  86 S12       30.35R FOG     WCI   5
CLARION *      MOCLDY     9   7  92 SE10      30.36S WCI  -6
ESTHERVILLE    CLEAR     14   9  80 S15       30.30S WCI  -1
FORT DODGE *   CLOUDY    18  12  79 S9        30.37R WCI   6
MASON CITY     CLEAR      6   1  80 S10       30.37F WCI  -9
FOREST CITY *  CLOUDY    10   3  72 SE9       30.36S WCI  -2
IOWA FALLS *   CLOUDY    14  10  85 SE12      30.38S WCI   0
$$

IAZ007>011-017>019-026>030-037>042-050>054-066-010400-
   NORTHEAST IOWA

CITY           SKY/WX    TMP DP  RH WIND       PRES   REMARKS
CEDAR RAPIDS   CLOUDY     9   7  92 E5        30.43S WCI   1
CHARLES CITY * MOCLDY     7   1  78 SE8       30.39F WCI  -6
CLINTON *      CLOUDY    10   9  92 E9        30.49F WCI  -2
DECORAH *      CLOUDY    10   0  61 S10       30.39F WCI  -3
DUBUQUE        PTCLDY     7   4  87 S6        30.43F WCI  -3
MONTICELLO *   CLOUDY    10   9  92 SE6       30.45S WCI   1
OELWEIN *      FLURRIES   7   1  78 SE8       30.42S WCI  -6
WATERLOO         N/A     11   7  84 SE7       30.42S WCI   0
$$

IAZ064-065-067-068-078-010400-
   EAST CENTRAL IOWA

CITY           SKY/WX    TMP DP  RH WIND       PRES   REMARKS
DAVENPORT      CLEAR     11   6  81 E7        30.47F WCI   0
IOWA CITY      CLOUDY    14  12  92 SE6       30.47F WCI   5
MT. PLEASANT * LGT SNOW  12  12 100 E3        30.45S
MUSCATINE *    MOCLDY    12   9  85 CALM      30.48F
QUAD CITIES    MOCLDY    11   7  84 E6        30.47F WCI   1
$$

IAZ062-063-075>077-085>089-095>099-010400-
   SOUTHEAST IOWA

CITY           SKY/WX    TMP DP  RH WIND       PRES   REMARKS
BURLINGTON     LGT SNOW  18  16  92 CALM      30.45S FOG
FAIRFIELD *    MOCLDY    10   7  85 E5        30.44F WCI   2
FORT MADISON * LGT SNOW  18  16  93 SE5       30.45F WCI  11
KEOKUK *       LGT SNOW  19  18  93 E6        30.44F WCI  11
OSKALOOSA *      N/A     10   9  92 SE7       30.43S WCI   0
CENTERVILLE *  PTCLDY    14  14 100 E3        30.41F
OTTUMWA        PTCLDY    12   9  87 SE8       30.42F WCI   0
WASHINGTON *   CLOUDY    10  10 100 SE7       30.45F WCI   0
$$

ABBREVIATIONS USED IN REMARKS
   TC - TEMPERATURES IN CELSIUS
  WCI - WIND CHILL INDEX
   HX - HEAT INDEX
  VSB - VISIBILITY
$$




USA.gov is the U.S. government's official web portal to all federal, state and local government web resources and services.